STARLINK-3119, 49145

Orbit data source: Space-Track

STARLINK-3119, 49145 is a payload satellite owned by SpaceX/Seattle (US) in LEO that was launched on Tue, 14 Sep 2021 UTC via an FALCON 9 launch vehicle from the Air Force Western Test Range (AFWTR). Payload-class satellites include a variety of spacecraft equipped with specific instruments for various scientific and technological missions. These include communications satellites like Starlink; space stations such as the ISS; scientific satellites like the Hubble; Earth observation satellites from companies like Planet Labs, Umbra, and HawkEye 360; GPS; miniature CubeSats for education and research; and military/defense satellites.

Loading next visibility...
Identifier
49145, 2021-082R
Orbit
LEO
Country
Flag of USUS
Related business
Manufacturer
SpaceX/Seattle
Mission
Operational Commercial Communications
Bus & Motor
STARLINK, Unknown motor
Mass
297 kg wet, ~275 kg dry
Launch date (UTC)
2021-09-14 (5 years ago)
Launch vehicle
FALCON 9
Launch site
Air Force Western Test Range (AFWTR)
Object type
Payload
Rocket body
Debris
Shape & HBR
Box + 1 Pan, 10.1 m
Radar Cross Section
13.562 m², Large (>1 m²)

Expand to show TLE details & history
Last TLE update: 14 hours ago

TLE from 14 hours ago
0 STARLINK-3119
1 49145U 21082R   26125.39688367 -.00000046  00000-0  39526-5 0  9993
2 49145  69.9996 111.4622 0003499 270.6920  89.3838 14.98328737255453
Epoch: 2026-05-05T09:31Z
TLE epoch observation values (Epoch: 2026-05-05T09:31:30.749Z)
Latitude
-0.00001°
Longitude
105.31175°
Altitude
574.458 km
Speed
7.574 km/s
True Right ascension
07h 25m 50s
True Declination
0° 00' 00"
Sunlit
Object was in daylight at epoch
Visualization orbit readout
Latitude
Unknown
Longitude
Unknown
Altitude
Unknown
Speed
Unknown
Apparent Right ascension
Unknown
Apparent Declination
Unknown
Sunlit
N/A
Visualization observer readout
Local Sidereal Time
07:13:25
Azimuth
Unknown
Elevation
Unknown
Doppler factor
Unknown
Orbital elements
Apogee altitude
572.439 km
Perigee altitude
567.577 km
Semi-major axis
6,948.145 km
Eccentricity
0.00035
Inclination
69.9996°
RAAN
111.4622°
Arg. of periapsis
270.692°
True anomaly
89.42389°
Mean anomaly
89.3838°
Eccentric anomaly
89.40385°
Mean motion
3.74748 °/min
Orbital period
96.06 mins
BSTAR
0.0000039526
Loading maneuver chart data...
Computing Atmospheric mass density...
Loading historical data...
Loading historical data...
Loading historical data...
Loading historical data...
Loading historical data...
Loading historical data...
Loading historical data...

Documentation

Showing up to 5 results
|